星链-33593 (STARLINK-33593)

导读

STARLINK-33593是美国SpaceX公司星链(Starlink)星座的卫星,于2025年1月21日发射入轨。星链项目旨在近地轨道构建全球卫星互联网星座,为全球基础设施匮乏地区提供高速低延迟宽带服务,该卫星的成功发射进一步扩充了星链星座的覆盖能力与网络容量,推动全球互联网普及进程。

Basic Information
目录编号:
62780
目录名称:
STARLINK-33593
国际标识:
2025-015Y
轨道中心:
EARTH
卫星名称:
星链-33593
卫星全名:
星链-33593 (STARLINK-33593)
卫星状态:
在轨 (已飞行509 天)
发射日期:
2025-01-21 UTC
国别 :
美国 (US)
星等 :
--
Orbit Information
数据来源 国际轨道数据 AOE轨道数据
星历时间 2026-06-14T05:33:55+0800
11小时前
查看轨道信息
2026-06-11T06:00:00+0800
3天前
查看轨道信息
半长轴 6840.826km 6840.811km
偏心率 0.0001253 0.0001417
轨道倾角 53.158° 53.156°
近地点辐角 87.554° 54.213°
升交点赤经 234.688° 248.631°
平近点角 272.561° 25.349°
近地点 461.831km 461.704km
远地点 463.547km 463.644km
周期 93.847分钟 93.847分钟
每日圈数 15.34405 15.344101
Detailed Information
固有亮度:
5
最大亮度:
2.5
卫星平台:
Starlink V1.0
覆盖范围:
全球
运营商:
太空探索技术公司
运营商所在国:
美国
制造商(研发单位):
太空探索技术公司
制造商所在国:
美国
使用方式:
暂无
Satellite Introduction
Starlink 计划是 SpaceX 推出的全球卫星互联网项目,通过发射低轨道卫星,为全球尤其是偏远地区提供高速、低延迟的互联网服务。自 2019 年起,Starlink 已部署数千颗卫星,旨在缩小全球数字鸿沟,推动互联网普及。该项目还为军事、航空等行业提供通信支持,带来广泛经济效益。
2D Orbit Map
3D Orbit Map
Orbit Altitude Analysis Chart
Orbit Inclination Analysis Chart
Orbit Comprehensive Analysis Chart
View Comprehensive Chart